Fort Collins, CO

9:31 AM MST on December 13, 2019 (GMT -0700)
Fort Collins-Loveland Municipal

Weather History for KFNL - October, 2019

Change the Weather History Date:

Wednesday, October 2, 2019

  Actual Average Record
Temperature  
Mean Temperature 50 °F -  
Max Temperature 60 °F - 87 °F (2005)
Min Temperature 40 °F - 33 °F (1999)
Degree Days  
Heating Degree Days 15    
Month to date heating degree days 32  
Cooling Degree Days 0    
Month to date cooling degree days 0  
Moisture  
Dew Point 40 °F    
Average Humidity 79    
Maximum Humidity 100    
Minimum Humidity 57    
Precipitation  
Precipitation 0.02 in - 0.61 in (1998)
Snow  
Snow 0.00 in - - ()
Snow Depth 0.00 in    
Sea Level Pressure  
Sea Level Pressure 30.05 in    
Wind  
Wind Speed 8 mph (ESE)    
Max Wind Speed 12 mph    
Max Gust Speed -    
Visibility 8 miles    
Events Rain    
T = Trace of Precipitation, MM = Missing Value Source: NWS Daily Summary

Daily Weather History Graph

Daily Weather History Graph

Search for Another Location

Airport or City:

Astronomy

Oct. 02, 2019 Rise Set
Actual Time 6:57 AM MDT 6:40 PM MDT
Civil Twilight 6:30 AM MDT 7:07 PM MDT
Nautical Twilight 5:58 AM MDT 7:39 PM MDT
Astronomical Twilight 5:26 AM MDT 8:11 PM MDT
Moon 11:26 AM MDT (10/2) 9:35 PM MDT (10/2)
Length of Visible Light 12h 37m
Length of Day
11h 43m
Waxing Crescent, 21% of the Moon is Illuminated
Oct 2
Waxing Crescent
Oct 5
First Quarter
Oct 13
Full
Oct 21
Last Quarter
Oct 27
New

Hourly Weather History & Observations

Time (MDT) Temp. Windchill Dew Point Humidity Pressure Visibility Wind Dir Wind Speed Gust Speed Precip Events Conditions
12:05 AM 42.8 °F 36.6 °F 41.0 °F 93% 30.05 in 5.0 mi East 11.5 mph - 0.00 in Rain Light Rain
12:26 AM 42.8 °F 37.5 °F 41.0 °F 93% 30.05 in 4.0 mi East 9.2 mph - 0.00 in Rain Light Rain
12:56 AM 42.1 °F 37.1 °F 41.0 °F 96% 30.01 in 10.0 mi ESE 8.1 mph - 0.00 in Rain Light Rain
1:56 AM 41.0 °F 34.3 °F 41.0 °F 100% 30.01 in 5.0 mi ESE 11.5 mph - 0.01 in Rain Light Rain
2:56 AM 41.0 °F 35.2 °F 39.9 °F 96% 30.01 in 5.0 mi ESE 9.2 mph - 0.00 in Rain Light Rain
3:56 AM 41.0 °F 35.8 °F 39.9 °F 96% 30.00 in 3.0 mi East 8.1 mph - 0.01 in Rain Light Rain
4:56 AM 39.9 °F 33.9 °F 39.9 °F 100% 29.98 in 7.0 mi East 9.2 mph - 0.00 in   Overcast
5:21 AM 39.2 °F 33.6 °F 39.2 °F 100% 30.03 in 10.0 mi ESE 8.1 mph - N/A   Overcast
5:35 AM 39.2 °F 33.6 °F 39.2 °F 100% 30.03 in 10.0 mi ESE 8.1 mph - N/A   Overcast
5:46 AM 39.2 °F 33.0 °F 39.2 °F 100% 30.04 in 10.0 mi East 9.2 mph - N/A   Overcast
5:56 AM 39.9 °F 33.9 °F 39.0 °F 97% 30.01 in 10.0 mi ESE 9.2 mph - N/A   Overcast
6:54 AM 39.2 °F 33.6 °F 39.2 °F 100% 30.04 in 3.0 mi East 8.1 mph - 0.00 in Rain Light Rain
6:56 AM 39.9 °F 35.1 °F 39.0 °F 97% 30.03 in 3.0 mi East 6.9 mph - 0.00 in Rain Light Rain
7:56 AM 39.9 °F 35.8 °F 39.9 °F 100% 30.04 in 2.5 mi East 5.8 mph - 0.00 in   Overcast
8:20 AM 39.2 °F 34.2 °F 39.2 °F 100% 30.07 in 4.0 mi East 6.9 mph - 0.00 in Rain Light Rain
8:39 AM 41.0 °F 36.4 °F 39.2 °F 93% 30.07 in 2.0 mi East 6.9 mph - 0.00 in Rain Light Rain
8:56 AM 41.0 °F 36.4 °F 39.9 °F 96% 30.06 in 3.0 mi East 6.9 mph - 0.00 in Rain Light Rain
9:28 AM 42.8 °F 38.6 °F 41.0 °F 93% 30.08 in 7.0 mi SE 6.9 mph - 0.00 in Rain Light Rain
9:56 AM 44.1 °F 40.1 °F 43.0 °F 96% 30.05 in 10.0 mi SE 6.9 mph - 0.00 in   Overcast
10:22 AM 44.6 °F 41.4 °F 41.0 °F 87% 30.07 in 10.0 mi SE 5.8 mph - N/A   Overcast
10:56 AM 45.0 °F 40.6 °F 39.9 °F 82% 30.04 in 10.0 mi SSW 8.1 mph - N/A   Overcast
11:31 AM 46.4 °F 42.9 °F 41.0 °F 81% 30.07 in 10.0 mi SE 6.9 mph - N/A   Overcast
11:56 AM 46.9 °F - 41.0 °F 80% 30.03 in 10.0 mi SSE 5.8 mph - N/A   Overcast
12:56 PM 48.9 °F - 41.0 °F 74% 30.01 in 10.0 mi Variable 4.6 mph - N/A   Overcast
1:56 PM 53.1 °F - 42.1 °F 66% 29.99 in 10.0 mi SW 8.1 mph - N/A   Mostly Cloudy
2:21 PM 53.6 °F - 42.8 °F 67% 30.03 in 10.0 mi SSW 4.6 mph - N/A   Partly Cloudy
2:46 PM 53.6 °F - 41.0 °F 62% 30.03 in 10.0 mi Variable 3.5 mph - N/A   Mostly Cloudy
2:56 PM 53.1 °F - 41.0 °F 64% 29.99 in 10.0 mi NW 4.6 mph - N/A   Scattered Clouds
3:56 PM 55.9 °F - 42.1 °F 60% 29.98 in 10.0 mi North 5.8 mph - N/A   Clear
4:56 PM 57.9 °F - 43.0 °F 58% 29.99 in 10.0 mi Variable 3.5 mph - N/A   Clear
5:56 PM 57.9 °F - 43.0 °F 58% 30.04 in 10.0 mi ENE 6.9 mph - N/A   Clear
6:56 PM 52.0 °F - 43.0 °F 71% 30.10 in 10.0 mi East 4.6 mph - N/A   Clear
7:56 PM 51.1 °F - 42.1 °F 71% 30.14 in 10.0 mi East 3.5 mph - N/A   Clear
8:56 PM 48.9 °F - 35.1 °F 59% 30.19 in 10.0 mi Variable 4.6 mph - N/A   Clear
9:56 PM 45.0 °F 41.2 °F 37.9 °F 76% 30.22 in 10.0 mi South 6.9 mph - N/A   Mostly Cloudy
10:56 PM 46.9 °F - 39.0 °F 74% 30.23 in 10.0 mi South 5.8 mph - N/A   Overcast
11:56 PM 48.0 °F - 41.0 °F 77% 30.22 in 10.0 mi South 6.9 mph - N/A   Overcast